STARLINK-34151, 64120

Orbit data source: Space-Track

STARLINK-34151, 64120 is a payload satellite owned by SpaceX/Seattle (US) in LEO that was launched on Fri, 23 May 2025 UTC via an FALCON 9 launch vehicle from the Air Force Western Test Range (AFWTR). Payload-class satellites include a variety of spacecraft equipped with specific instruments for various scientific and technological missions. These include communications satellites like Starlink; space stations such as the ISS; scientific satellites like the Hubble; Earth observation satellites from companies like Planet Labs, Umbra, and HawkEye 360; GPS; miniature CubeSats for education and research; and military/defense satellites.

Loading next visibility...
Identifier
64120, 2025-110AA
Orbit
LEO
Country
Flag of USUS
Related business
Manufacturer
SpaceX/Seattle
Mission
Operational Commercial Communications
Bus & Motor
STARLINK V2MO, Unknown motor
Mass
575 kg wet, ~530 kg dry
Launch date (UTC)
2025-05-23 (1 year ago)
Launch vehicle
FALCON 9
Launch site
Air Force Western Test Range (AFWTR)
Object type
Payload
Rocket body
Debris
Shape & HBR
Box + 2 Pan, 17.7 m
Radar Cross Section
36.964 m², Large (>1 m²)

Expand to show TLE details & history
Last TLE update: 1 day ago

TLE from 1 day ago
0 STARLINK-34151
1 64120U 25110AA  26170.55006845  .00024685  00000-0  82667-3 0  9998
2 64120  53.1608 273.9202 0001299  58.2019 301.9108 15.30826960 61479
Epoch: 2026-06-19T13:12Z
TLE epoch observation values (Epoch: 2026-06-19T13:12:05.914Z)
Latitude
-0.00004°
Longitude
168.11809°
Altitude
473.773 km
Speed
7.631 km/s
True Right ascension
18h 15m 40s
True Declination
0° 00' 00"
Sunlit
Object was in full shadow at epoch
Visualization orbit readout
Latitude
Unknown
Longitude
Unknown
Altitude
Unknown
Speed
Unknown
Apparent Right ascension
Unknown
Apparent Declination
Unknown
Sunlit
N/A
Visualization observer readout
Local Sidereal Time
07:17:22
Azimuth
Unknown
Elevation
Unknown
Doppler factor
Unknown
Orbital elements
Apogee altitude
474.49 km
Perigee altitude
472.71 km
Semi-major axis
6,851.737 km
Eccentricity
0.00013
Inclination
53.1608°
RAAN
273.9202°
Arg. of periapsis
58.2019°
True anomaly
301.89816°
Mean anomaly
301.9108°
Eccentric anomaly
301.90448°
Mean motion
3.82686 °/min
Orbital period
94.07 mins
BSTAR
0.00082667
Loading maneuver chart data...
Computing Atmospheric mass density...
Loading historical data...
Loading historical data...
Loading historical data...
Loading historical data...
Loading historical data...
Loading historical data...
Loading historical data...

Documentation

Showing up to 5 results
|